Погода в Эссене

Германия     51°27′07″N   7°00′02″E
темп.,
°C
ветер,
м/с
пор.,
м/с
влажн.,
%
обл.,
%
осадки,
мм/ч
давл.,
гПа
погр.,
м
12 апреля, пн
пн1223:00+3сз2875100 0.0 1020381
02:00+1зсз258099 0.0 1022189
05:00+1з2481100 0.0 1023158
08:00+1зюз26796 0.0 1025256
11:00+6з345896 0.3 10261389
14:00+7з455198 1.3 10271812
17:00+7зсз454868 0.7 10271658
20:00+5зсз266141 1.4 1028383
13 апреля, вт
вт1323:00+2зсз14765 0.0 1030166
02:00+1зюз14804 0.0 1031157
05:000зюз24865 0.0 1031138
08:00+1зюз248410 0.1 1032186
11:00+6сз346468 0.3 10331197
14:00+9сз353212 0.7 10322374
17:00+9сз453499 0.0 10312307
20:00+6сз475893 0.0 1032683
14 апреля, ср
ср1423:00+5ссз2665100 0.0 1032286
02:00+3ссз13745 0.0 1032138
05:00+1сз12815 0.0 103271
08:00+2сз127759 0.0 1032166
11:00+6ссз235167 0.0 10321336
14:00+8сз343699 0.1 10302269
17:00+10ссз342999 0.0 10282459
20:00+6ссз4668100 0.5 1029549
15 апреля, чт
чт1523:00+4св388762 0.7 1030616
02:00+3всв269099 0.7 1030416
05:00+2ссв1393100 0.0 1030139
08:00+2св2484100 0.0 1030286
11:00+6св34577 0.0 10301091
14:00+9всв454094 0.3 10292102
17:00+10всв4538100 0.0 10282209
20:00+8св47445 0.0 10281123
16 апреля, пт
пт1623:00+5св396245 0.0 1029447
02:00+4св277254 0.0 1029311
05:00+3св386787 0.0 1029430
08:00+3св386281 0.0 1029368
11:00+7св365351 0.0 10291127
14:00+11св563513 0.0 10261915
17:00+12св4639100 0.0 10252069
20:00+10св364787 0.0 10261311